Time,TemperatureF,DewpointF,PressureIn,WindDirection,WindDirectionDegrees,WindSpeedMPH,WindSpeedGustMPH,Humidity,HourlyPrecipIn,Conditions,Clouds,dailyrainin,SoftwareType,DateUTC
2013-10-04 00:31:00,67.8,64.8,30.06,SW,225,0.0,6.7,90,0.00,,---,0.00,VWS V14.01,2013-10-04 04:31:00,
2013-10-04 00:33:00,67.6,64.6,30.06,West,270,4.5,6.7,90,0.00,,---,0.00,VWS V14.01,2013-10-04 04:33:00,
2013-10-04 00:35:00,67.6,64.6,30.06,SSW,202,3.1,6.7,90,0.00,,---,0.00,VWS V14.01,2013-10-04 04:35:00,
2013-10-04 00:36:00,67.6,64.6,30.06,SSW,202,4.9,6.7,90,0.00,,---,0.00,VWS V14.01,2013-10-04 04:36:00,
2013-10-04 00:38:00,67.6,64.6,30.03,SE,135,0.0,8.1,90,0.00,,---,0.00,VWS V14.01,2013-10-04 04:38:00,
2013-10-04 00:43:00,67.5,64.4,30.03,South,180,5.4,8.1,90,0.00,,---,0.00,VWS V14.01,2013-10-04 04:43:00,
2013-10-04 00:45:00,67.6,64.6,30.03,SW,225,0.0,8.1,90,0.00,,---,0.00,VWS V14.01,2013-10-04 04:45:00,
2013-10-04 00:50:00,67.6,64.6,30.03,South,180,3.1,8.1,90,0.00,,---,0.00,VWS V14.01,2013-10-04 04:50:00,
2013-10-04 00:52:00,67.6,64.6,30.03,SW,225,3.1,8.1,90,0.00,,---,0.00,VWS V14.01,2013-10-04 04:52:00,
2013-10-04 00:54:00,67.6,64.6,30.06,South,180,2.7,8.1,90,0.00,,---,0.00,VWS V14.01,2013-10-04 04:54:00,
2013-10-04 00:56:00,67.6,64.6,30.06,SW,225,2.7,8.1,90,0.00,,---,0.00,VWS V14.01,2013-10-04 04:56:00,
2013-10-04 01:01:00,67.6,64.6,30.06,SW,225,0.0,4.5,90,0.00,,---,0.00,VWS V14.01,2013-10-04 05:01:00,
2013-10-04 01:02:00,67.6,64.6,30.06,SW,225,0.0,4.5,90,0.00,,---,0.00,VWS V14.01,2013-10-04 05:02:00,
2013-10-04 01:03:00,67.6,64.6,30.06,SW,225,2.2,5.4,90,0.00,,---,0.00,VWS V14.01,2013-10-04 05:03:00,
2013-10-04 01:08:00,67.6,64.6,30.03,South,180,0.0,5.4,90,0.00,,---,0.00,VWS V14.01,2013-10-04 05:08:00,
2013-10-04 01:13:00,67.6,64.6,30.03,WNW,292,2.7,5.4,90,0.00,,---,0.00,VWS V14.01,2013-10-04 05:13:00,
2013-10-04 01:17:00,67.6,64.6,30.03,ENE,68,3.6,5.4,90,0.00,,---,0.00,VWS V14.01,2013-10-04 05:17:00,
2013-10-04 01:19:00,67.6,64.6,30.03,SE,135,0.0,5.4,90,0.00,,---,0.00,VWS V14.01,2013-10-04 05:19:00,
2013-10-04 01:25:00,67.6,64.6,30.03,SW,225,2.7,5.4,90,0.00,,---,0.00,VWS V14.01,2013-10-04 05:25:00,
2013-10-04 01:31:00,67.1,64.1,30.03,SW,225,4.0,5.8,90,0.00,,---,0.00,VWS V14.01,2013-10-04 05:31:00,
2013-10-04 01:36:00,67.1,64.1,30.03,SW,225,0.0,5.8,90,0.00,,---,0.00,VWS V14.01,2013-10-04 05:36:00,
2013-10-04 01:41:00,67.1,64.1,30.03,SW,225,3.6,7.6,90,0.00,,---,0.00,VWS V14.01,2013-10-04 05:41:00,
2013-10-04 01:46:00,67.1,64.1,30.03,WNW,292,0.0,7.6,90,0.00,,---,0.00,VWS V14.01,2013-10-04 05:46:00,
2013-10-04 01:51:00,67.1,64.1,30.03,SW,225,4.0,10.1,90,0.00,,---,0.00,VWS V14.01,2013-10-04 05:51:00,
2013-10-04 01:56:00,67.1,64.1,30.03,WSW,248,4.9,10.1,90,0.00,,---,0.00,VWS V14.01,2013-10-04 05:56:00,
2013-10-04 02:01:00,67.1,64.1,30.03,South,180,2.7,5.8,90,0.00,,---,0.00,VWS V14.01,2013-10-04 06:01:00,
2013-10-04 02:06:00,67.1,64.1,30.03,SSE,158,3.1,5.8,90,0.00,,---,0.00,VWS V14.01,2013-10-04 06:06:00,
2013-10-04 02:11:00,67.1,64.1,30.03,SSW,202,4.9,6.7,90,0.00,,---,0.00,VWS V14.01,2013-10-04 06:11:00,
2013-10-04 02:16:00,66.9,64.2,30.03,SW,225,2.2,6.7,91,0.00,,---,0.00,VWS V14.01,2013-10-04 06:16:00,
2013-10-04 02:21:00,66.7,64.0,30.03,South,180,3.1,8.3,91,0.00,,---,0.00,VWS V14.01,2013-10-04 06:21:00,
2013-10-04 02:26:00,66.7,64.0,30.03,SW,225,0.0,8.3,91,0.00,,---,0.00,VWS V14.01,2013-10-04 06:26:00,
2013-10-04 02:31:00,66.6,63.9,30.03,West,270,0.0,8.3,91,0.00,,---,0.00,VWS V14.01,2013-10-04 06:31:00,
2013-10-04 02:36:00,66.7,64.0,30.03,SE,135,3.6,8.3,91,0.00,,---,0.00,VWS V14.01,2013-10-04 06:36:00,
2013-10-04 02:41:00,66.7,64.0,30.03,SW,225,3.1,8.3,91,0.00,,---,0.00,VWS V14.01,2013-10-04 06:41:00,
2013-10-04 02:46:00,66.7,64.0,30.03,SW,225,0.0,8.3,91,0.00,,---,0.00,VWS V14.01,2013-10-04 06:46:00,
2013-10-04 02:51:00,66.7,64.0,30.03,South,180,0.0,8.3,91,0.00,,---,0.00,VWS V14.01,2013-10-04 06:51:00,
2013-10-04 02:56:00,66.9,64.2,30.03,NW,315,0.0,8.3,91,0.00,,---,0.00,VWS V14.01,2013-10-04 06:56:00,
2013-10-04 03:01:00,66.9,64.2,30.03,West,270,0.0,4.0,91,0.00,,---,0.00,VWS V14.01,2013-10-04 07:01:00,
2013-10-04 03:06:00,66.9,64.2,30.03,SW,225,5.4,5.4,91,0.00,,---,0.00,VWS V14.01,2013-10-04 07:06:00,
2013-10-04 03:11:00,66.9,64.2,30.03,WSW,248,0.0,7.2,91,0.00,,---,0.00,VWS V14.01,2013-10-04 07:11:00,
2013-10-04 03:16:00,66.9,64.2,30.03,SW,225,0.0,7.2,91,0.00,,---,0.00,VWS V14.01,2013-10-04 07:16:00,
2013-10-04 03:21:00,66.9,64.2,30.03,SW,225,3.1,7.2,91,0.00,,---,0.00,VWS V14.01,2013-10-04 07:21:00,
2013-10-04 03:26:00,66.9,64.2,30.03,WSW,248,6.7,7.2,91,0.00,,---,0.00,VWS V14.01,2013-10-04 07:26:00,
2013-10-04 03:31:00,67.1,64.4,30.03,NW,315,2.2,7.2,91,0.00,,---,0.00,VWS V14.01,2013-10-04 07:31:00,
2013-10-04 03:36:00,67.1,64.4,30.03,SW,225,4.5,7.2,91,0.00,,---,0.00,VWS V14.01,2013-10-04 07:36:00,
2013-10-04 03:41:00,67.1,64.4,30.03,SW,225,0.0,7.2,91,0.00,,---,0.00,VWS V14.01,2013-10-04 07:41:00,
2013-10-04 03:46:00,67.1,64.4,30.03,SW,225,2.2,7.2,91,0.00,,---,0.00,VWS V14.01,2013-10-04 07:46:00,
2013-10-04 03:51:00,67.1,64.4,30.03,West,270,0.0,7.2,91,0.00,,---,0.00,VWS V14.01,2013-10-04 07:51:00,
2013-10-04 03:56:00,67.1,64.4,30.03,SE,135,2.7,7.6,91,0.00,,---,0.00,VWS V14.01,2013-10-04 07:56:00,
2013-10-04 04:01:00,67.1,64.4,30.03,WSW,248,3.6,5.4,91,0.00,,---,0.00,VWS V14.01,2013-10-04 08:01:00,
2013-10-04 04:06:00,67.1,64.4,30.03,SSW,202,3.6,5.4,91,0.00,,---,0.00,VWS V14.01,2013-10-04 08:06:00,
2013-10-04 04:11:00,67.3,64.6,30.03,SW,225,0.0,5.8,91,0.00,,---,0.00,VWS V14.01,2013-10-04 08:11:00,
2013-10-04 04:16:00,67.3,64.9,30.03,SW,225,7.2,7.2,92,0.00,,---,0.00,VWS V14.01,2013-10-04 08:16:00,
2013-10-04 04:21:00,67.3,64.9,30.03,SW,225,0.0,7.2,92,0.00,,---,0.00,VWS V14.01,2013-10-04 08:21:00,
2013-10-04 04:26:00,67.3,64.9,30.03,SW,225,4.0,7.2,92,0.00,,---,0.00,VWS V14.01,2013-10-04 08:26:00,
2013-10-04 04:31:00,67.1,64.7,30.03,West,270,5.8,7.2,92,0.00,,---,0.00,VWS V14.01,2013-10-04 08:31:00,
2013-10-04 04:36:00,67.1,64.7,30.03,SW,225,2.7,7.2,92,0.00,,---,0.00,VWS V14.01,2013-10-04 08:36:00,
2013-10-04 04:41:00,67.3,64.9,30.03,SSW,202,5.8,7.2,92,0.00,,---,0.00,VWS V14.01,2013-10-04 08:41:00,
2013-10-04 04:46:00,67.3,64.9,30.03,SW,225,0.0,8.1,92,0.00,,---,0.00,VWS V14.01,2013-10-04 08:46:00,
2013-10-04 04:51:00,67.3,64.9,30.03,SSW,202,2.7,8.1,92,0.00,,---,0.00,VWS V14.01,2013-10-04 08:51:00,
2013-10-04 04:56:00,67.3,64.9,30.03,West,270,0.0,8.1,92,0.00,,---,0.00,VWS V14.01,2013-10-04 08:56:00,
2013-10-04 05:01:00,67.3,64.9,30.03,SW,225,2.7,4.9,92,0.00,,---,0.00,VWS V14.01,2013-10-04 09:01:00,
2013-10-04 05:06:00,67.1,64.7,30.03,SW,225,0.0,7.2,92,0.00,,---,0.00,VWS V14.01,2013-10-04 09:06:00,
2013-10-04 05:11:00,67.1,64.7,30.03,SSW,202,3.6,7.2,92,0.00,,---,0.00,VWS V14.01,2013-10-04 09:11:00,
2013-10-04 05:16:00,67.1,64.7,30.03,SW,225,0.0,7.2,92,0.00,,---,0.00,VWS V14.01,2013-10-04 09:16:00,
2013-10-04 05:21:00,67.1,64.7,30.03,South,180,2.2,7.6,92,0.00,,---,0.00,VWS V14.01,2013-10-04 09:21:00,
2013-10-04 05:26:00,67.1,64.7,30.03,SW,225,2.7,7.6,92,0.00,,---,0.00,VWS V14.01,2013-10-04 09:26:00,
2013-10-04 05:31:00,66.9,64.5,30.03,SW,225,2.7,7.6,92,0.00,,---,0.00,VWS V14.01,2013-10-04 09:31:00,
2013-10-04 05:36:00,66.9,64.5,30.03,South,180,2.7,7.6,92,0.00,,---,0.00,VWS V14.01,2013-10-04 09:36:00,
2013-10-04 05:41:00,66.9,64.5,30.03,South,180,3.1,7.6,92,0.00,,---,0.00,VWS V14.01,2013-10-04 09:41:00,
2013-10-04 05:46:00,66.7,64.0,30.03,SSW,202,0.0,7.6,91,0.00,,---,0.00,VWS V14.01,2013-10-04 09:46:00,
2013-10-04 05:51:00,66.7,64.0,30.03,SW,225,0.0,7.6,91,0.00,,---,0.00,VWS V14.01,2013-10-04 09:51:00,
2013-10-04 05:56:00,66.6,63.9,30.03,SW,225,0.0,7.6,91,0.00,,---,0.00,VWS V14.01,2013-10-04 09:56:00,
2013-10-04 06:01:00,66.6,63.9,30.03,South,180,0.0,2.7,91,0.00,,---,0.00,VWS V14.01,2013-10-04 10:01:00,
2013-10-04 06:06:00,66.6,63.9,30.03,SE,135,3.6,4.9,91,0.00,,---,0.00,VWS V14.01,2013-10-04 10:06:00,
2013-10-04 06:11:00,66.6,63.9,30.03,SW,225,3.6,4.9,91,0.00,,---,0.00,VWS V14.01,2013-10-04 10:11:00,
2013-10-04 06:16:00,66.6,63.9,30.03,SW,225,2.2,4.9,91,0.00,,---,0.00,VWS V14.01,2013-10-04 10:16:00,
2013-10-04 06:21:00,66.6,63.9,30.03,SW,225,2.2,4.9,91,0.00,,---,0.00,VWS V14.01,2013-10-04 10:21:00,
2013-10-04 06:26:00,66.4,63.7,30.03,WSW,248,0.0,4.9,91,0.00,,---,0.00,VWS V14.01,2013-10-04 10:26:00,
2013-10-04 06:31:00,66.4,63.7,30.03,SW,225,2.7,4.9,91,0.00,,---,0.00,VWS V14.01,2013-10-04 10:31:00,
2013-10-04 06:36:00,66.4,63.7,30.03,SSW,202,0.0,4.9,91,0.00,,---,0.00,VWS V14.01,2013-10-04 10:36:00,
2013-10-04 06:41:00,66.4,63.7,30.06,SW,225,0.0,4.9,91,0.00,,---,0.00,VWS V14.01,2013-10-04 10:41:00,
2013-10-04 06:46:00,66.4,63.7,30.06,SSW,202,5.8,5.8,91,0.00,,---,0.00,VWS V14.01,2013-10-04 10:46:00,
2013-10-04 06:51:00,66.4,63.7,30.06,SW,225,0.0,5.8,91,0.00,,---,0.00,VWS V14.01,2013-10-04 10:51:00,
2013-10-04 06:56:00,66.6,63.9,30.06,South,180,0.0,5.8,91,0.00,,---,0.00,VWS V14.01,2013-10-04 10:56:00,
2013-10-04 07:01:00,66.6,63.9,30.06,East,90,0.0,4.0,91,0.00,,---,0.00,VWS V14.01,2013-10-04 11:01:00,
2013-10-04 07:06:00,66.6,63.9,30.06,SE,135,0.0,4.0,91,0.00,,---,0.00,VWS V14.01,2013-10-04 11:06:00,
2013-10-04 07:11:00,66.6,63.9,30.06,SW,225,0.0,4.0,91,0.00,,---,0.00,VWS V14.01,2013-10-04 11:11:00,
2013-10-04 07:16:00,66.6,63.9,30.06,South,180,4.9,4.9,91,0.00,,---,0.00,VWS V14.01,2013-10-04 11:16:00,
2013-10-04 07:21:00,66.7,64.0,30.06,SW,225,0.0,4.9,91,0.00,,---,0.00,VWS V14.01,2013-10-04 11:21:00,
2013-10-04 07:26:00,66.7,64.0,30.06,South,180,3.6,4.9,91,0.00,,---,0.00,VWS V14.01,2013-10-04 11:26:00,
2013-10-04 07:31:00,66.7,64.0,30.06,South,180,0.0,5.8,91,0.00,,---,0.00,VWS V14.01,2013-10-04 11:31:00,
2013-10-04 07:36:00,66.7,64.0,30.06,SW,225,0.0,5.8,91,0.00,,---,0.00,VWS V14.01,2013-10-04 11:36:00,
2013-10-04 07:41:00,66.7,64.0,30.06,SW,225,3.1,5.8,91,0.00,,---,0.00,VWS V14.01,2013-10-04 11:41:00,
2013-10-04 07:46:00,66.7,64.0,30.06,SW,225,0.0,5.8,91,0.00,,---,0.00,VWS V14.01,2013-10-04 11:46:00,
2013-10-04 07:51:00,66.7,64.0,30.06,South,180,3.1,5.8,91,0.00,,---,0.00,VWS V14.01,2013-10-04 11:51:00,
2013-10-04 07:56:00,66.9,64.2,30.06,SW,225,2.7,7.6,91,0.00,,---,0.00,VWS V14.01,2013-10-04 11:56:00,
2013-10-04 08:01:00,67.1,64.4,30.06,SW,225,0.0,4.0,91,0.00,,---,0.00,VWS V14.01,2013-10-04 12:01:00,
2013-10-04 08:06:00,67.3,64.6,30.06,WSW,248,5.4,5.4,91,0.00,,---,0.00,VWS V14.01,2013-10-04 12:06:00,
2013-10-04 08:11:00,67.5,64.8,30.06,SW,225,5.4,5.4,91,0.00,,---,0.00,VWS V14.01,2013-10-04 12:11:00,
2013-10-04 08:16:00,67.5,64.8,30.06,ESE,112,3.1,5.8,91,0.00,,---,0.00,VWS V14.01,2013-10-04 12:16:00,
2013-10-04 08:21:00,67.6,65.2,30.06,West,270,3.1,8.1,92,0.00,,---,0.00,VWS V14.01,2013-10-04 12:21:00,
2013-10-04 08:26:00,67.8,65.4,30.06,NE,45,0.0,8.1,92,0.00,,---,0.00,VWS V14.01,2013-10-04 12:26:00,
2013-10-04 08:31:00,67.8,65.4,30.06,SSW,202,0.0,8.1,92,0.00,,---,0.00,VWS V14.01,2013-10-04 12:31:00,
2013-10-04 08:36:00,67.8,65.4,30.06,West,270,0.0,8.1,92,0.00,,---,0.00,VWS V14.01,2013-10-04 12:36:00,
2013-10-04 08:41:00,68.0,65.3,30.09,SE,135,0.0,8.1,91,0.00,,---,0.00,VWS V14.01,2013-10-04 12:41:00,
2013-10-04 08:46:00,68.0,65.3,30.09,SSE,158,3.6,8.1,91,0.00,,---,0.00,VWS V14.01,2013-10-04 12:46:00,
2013-10-04 08:51:00,68.0,65.3,30.09,South,180,5.4,8.1,91,0.00,,---,0.00,VWS V14.01,2013-10-04 12:51:00,
2013-10-04 08:56:00,68.2,65.5,30.06,SW,225,3.1,8.1,91,0.00,,---,0.00,VWS V14.01,2013-10-04 12:56:00,
2013-10-04 09:01:00,68.2,65.5,30.06,South,180,4.0,4.0,91,0.00,,---,0.00,VWS V14.01,2013-10-04 13:01:00,
2013-10-04 09:06:00,68.5,65.8,30.06,SSW,202,2.2,5.4,91,0.00,,---,0.00,VWS V14.01,2013-10-04 13:06:00,
2013-10-04 09:11:00,69.4,66.7,30.09,SW,225,4.0,5.4,91,0.00,,---,0.00,VWS V14.01,2013-10-04 13:11:00,
2013-10-04 09:16:00,70.3,67.6,30.09,South,180,2.7,6.3,91,0.00,,---,0.00,VWS V14.01,2013-10-04 13:16:00,
2013-10-04 09:21:00,70.5,67.8,30.09,SW,225,0.0,7.2,91,0.00,,---,0.00,VWS V14.01,2013-10-04 13:21:00,
2013-10-04 09:26:00,70.7,67.3,30.06,SW,225,0.0,7.2,89,0.00,,---,0.00,VWS V14.01,2013-10-04 13:26:00,
2013-10-04 09:31:00,71.4,67.3,30.06,SW,225,3.1,8.3,87,0.00,,---,0.00,VWS V14.01,2013-10-04 13:31:00,
2013-10-04 09:36:00,72.1,67.0,30.06,NE,45,2.7,8.3,84,0.00,,---,0.00,VWS V14.01,2013-10-04 13:36:00,
2013-10-04 09:41:00,73.0,66.5,30.09,East,90,5.4,8.3,80,0.00,,---,0.00,VWS V14.01,2013-10-04 13:41:00,
2013-10-04 09:46:00,73.2,64.4,30.09,South,180,4.0,8.7,74,0.00,,---,0.00,VWS V14.01,2013-10-04 13:46:00,
2013-10-04 09:51:00,73.8,64.2,30.09,WNW,292,3.1,8.7,72,0.00,,---,0.00,VWS V14.01,2013-10-04 13:51:00,
2013-10-04 09:56:00,74.3,63.9,30.06,South,180,3.1,8.7,70,0.00,,---,0.00,VWS V14.01,2013-10-04 13:56:00,
2013-10-04 10:01:00,74.8,64.0,30.06,SSW,202,0.0,5.4,69,0.00,,---,0.00,VWS V14.01,2013-10-04 14:01:00,
2013-10-04 10:06:00,74.8,62.7,30.06,NW,315,0.0,6.3,66,0.00,,---,0.00,VWS V14.01,2013-10-04 14:06:00,
2013-10-04 10:11:00,75.2,62.6,30.06,South,180,3.6,7.6,65,0.00,,---,0.00,VWS V14.01,2013-10-04 14:11:00,
2013-10-04 10:16:00,75.4,61.9,30.06,WNW,292,0.0,7.6,63,0.00,,---,0.00,VWS V14.01,2013-10-04 14:16:00,
2013-10-04 10:21:00,75.7,63.2,30.06,SW,225,5.4,7.6,65,0.00,,---,0.00,VWS V14.01,2013-10-04 14:21:00,
2013-10-04 10:26:00,75.6,62.1,30.09,WNW,292,0.0,7.6,63,0.00,,---,0.00,VWS V14.01,2013-10-04 14:26:00,
2013-10-04 10:31:00,76.1,62.2,30.09,South,180,0.0,7.6,62,0.00,,---,0.00,VWS V14.01,2013-10-04 14:31:00,
2013-10-04 10:36:00,76.1,62.2,30.09,SSW,202,0.0,7.6,62,0.00,,---,0.00,VWS V14.01,2013-10-04 14:36:00,
2013-10-04 10:41:00,77.0,63.5,30.09,SSW,202,2.2,7.6,63,0.00,,---,0.00,VWS V14.01,2013-10-04 14:41:00,
2013-10-04 10:46:00,77.4,62.4,30.09,SW,225,3.6,7.6,60,0.00,,---,0.00,VWS V14.01,2013-10-04 14:46:00,
2013-10-04 10:51:00,77.2,61.8,30.09,SE,135,0.0,7.6,59,0.00,,---,0.00,VWS V14.01,2013-10-04 14:51:00,
2013-10-04 10:56:00,77.0,61.6,30.06,West,270,0.0,7.6,59,0.00,,---,0.00,VWS V14.01,2013-10-04 14:56:00,
2013-10-04 11:01:00,76.5,61.6,30.06,SSW,202,3.1,3.6,60,0.00,,---,0.00,VWS V14.01,2013-10-04 15:01:00,
2013-10-04 11:06:00,75.6,62.5,30.06,West,270,0.0,6.3,64,0.00,,---,0.00,VWS V14.01,2013-10-04 15:06:00,
2013-10-04 11:11:00,75.7,63.2,30.09,SW,225,2.2,6.3,65,0.00,,---,0.00,VWS V14.01,2013-10-04 15:11:00,
2013-10-04 11:16:00,75.7,62.3,30.09,SW,225,0.0,6.3,63,0.00,,---,0.00,VWS V14.01,2013-10-04 15:16:00,
2013-10-04 11:17:00,75.6,62.5,30.09,SE,135,7.6,7.6,64,0.00,,---,0.00,VWS V14.01,2013-10-04 15:17:00,
2013-10-04 11:22:00,75.0,62.5,30.09,SW,225,0.0,7.6,65,0.00,,---,0.00,VWS V14.01,2013-10-04 15:22:00,
2013-10-04 11:27:00,75.2,63.1,30.09,South,180,3.1,7.6,66,0.00,,---,0.00,VWS V14.01,2013-10-04 15:27:00,
2013-10-04 11:32:00,75.4,63.7,30.09,SW,225,0.0,7.6,67,0.00,,---,0.00,VWS V14.01,2013-10-04 15:32:00,
2013-10-04 11:37:00,75.4,63.7,30.09,West,270,0.0,7.6,67,0.00,,---,0.00,VWS V14.01,2013-10-04 15:37:00,
2013-10-04 11:42:00,75.6,63.8,30.09,NW,315,4.9,7.6,67,0.00,,---,0.00,VWS V14.01,2013-10-04 15:42:00,
2013-10-04 11:47:00,75.6,63.8,30.09,SE,135,0.0,7.6,67,0.00,,---,0.00,VWS V14.01,2013-10-04 15:47:00,
2013-10-04 11:52:00,76.3,63.7,30.09,South,180,0.0,7.6,65,0.00,,---,0.00,VWS V14.01,2013-10-04 15:52:00,
2013-10-04 11:57:00,77.7,63.2,30.09,SW,225,0.0,7.6,61,0.00,,---,0.00,VWS V14.01,2013-10-04 15:57:00,
2013-10-04 12:02:00,78.6,62.1,30.09,NNW,338,3.6,7.6,57,0.00,,---,0.00,VWS V14.01,2013-10-04 16:02:00,
2013-10-04 12:07:00,77.4,61.4,30.09,SE,135,7.2,7.6,58,0.00,,---,0.00,VWS V14.01,2013-10-04 16:07:00,
2013-10-04 12:12:00,76.1,60.8,30.09,South,180,3.1,7.6,59,0.00,,---,0.00,VWS V14.01,2013-10-04 16:12:00,
2013-10-04 12:17:00,75.2,61.3,30.09,SW,225,2.7,7.6,62,0.00,,---,0.00,VWS V14.01,2013-10-04 16:17:00,
2013-10-04 12:22:00,74.8,61.4,30.09,South,180,4.9,7.6,63,0.00,,---,0.00,VWS V14.01,2013-10-04 16:22:00,
2013-10-04 12:27:00,74.5,60.6,30.09,NW,315,2.7,7.6,62,0.00,,---,0.00,VWS V14.01,2013-10-04 16:27:00,
2013-10-04 12:32:00,74.8,61.4,30.09,East,90,0.0,7.6,63,0.00,,---,0.00,VWS V14.01,2013-10-04 16:32:00,
2013-10-04 12:37:00,74.8,60.5,30.09,SW,225,2.7,7.6,61,0.00,,---,0.00,VWS V14.01,2013-10-04 16:37:00,
2013-10-04 12:42:00,75.6,62.5,30.09,SW,225,3.1,7.6,64,0.00,,---,0.00,VWS V14.01,2013-10-04 16:42:00,
2013-10-04 12:47:00,76.3,61.4,30.09,South,180,0.0,7.6,60,0.00,,---,0.00,VWS V14.01,2013-10-04 16:47:00,
2013-10-04 12:52:00,77.2,61.3,30.09,SW,225,5.8,10.1,58,0.00,,---,0.00,VWS V14.01,2013-10-04 16:52:00,
2013-10-04 12:57:00,76.6,59.3,30.09,South,180,0.0,10.1,55,0.00,,---,0.00,VWS V14.01,2013-10-04 16:57:00,
2013-10-04 13:02:00,75.9,59.6,30.09,NW,315,3.1,8.7,57,0.00,,---,0.00,VWS V14.01,2013-10-04 17:02:00,
2013-10-04 13:07:00,75.6,60.7,30.09,SSE,158,4.0,8.7,60,0.00,,---,0.00,VWS V14.01,2013-10-04 17:07:00,
2013-10-04 13:12:00,74.7,60.3,30.09,South,180,6.3,8.7,61,0.00,,---,0.00,VWS V14.01,2013-10-04 17:12:00,
2013-10-04 13:17:00,74.7,61.2,30.09,NW,315,0.0,8.7,63,0.00,,---,0.00,VWS V14.01,2013-10-04 17:17:00,
2013-10-04 13:22:00,74.7,61.2,30.09,NW,315,0.0,8.7,63,0.00,,---,0.00,VWS V14.01,2013-10-04 17:22:00,
2013-10-04 13:27:00,74.7,61.2,30.09,SW,225,3.1,8.7,63,0.00,,---,0.00,VWS V14.01,2013-10-04 17:27:00,
2013-10-04 13:32:00,74.1,61.2,30.09,South,180,0.0,8.7,64,0.00,,---,0.00,VWS V14.01,2013-10-04 17:32:00,
2013-10-04 13:37:00,73.6,60.7,30.09,SE,135,2.7,8.7,64,0.00,,---,0.00,VWS V14.01,2013-10-04 17:37:00,
2013-10-04 14:02:00,73.0,61.9,30.09,NW,315,2.2,5.4,68,0.00,,---,0.00,VWS V14.01,2013-10-04 18:02:00,
2013-10-04 14:07:00,72.9,61.7,30.09,SSW,202,5.8,11.4,68,0.00,,---,0.00,VWS V14.01,2013-10-04 18:07:00,
2013-10-04 14:12:00,72.9,62.5,30.09,South,180,2.7,11.4,70,0.00,,---,0.00,VWS V14.01,2013-10-04 18:12:00,
2013-10-04 14:17:00,72.9,62.9,30.09,SW,225,3.1,11.4,71,0.00,,---,0.00,VWS V14.01,2013-10-04 18:17:00,
2013-10-04 14:22:00,73.4,63.4,30.09,WSW,248,2.2,11.4,71,0.00,,---,0.00,VWS V14.01,2013-10-04 18:22:00,
2013-10-04 14:27:00,73.9,63.5,30.09,WSW,248,0.0,11.4,70,0.00,,---,0.00,VWS V14.01,2013-10-04 18:27:00,
2013-10-04 14:32:00,73.9,63.1,30.09,West,270,3.1,11.4,69,0.00,,---,0.00,VWS V14.01,2013-10-04 18:32:00,
2013-10-04 14:37:00,74.1,63.3,30.09,South,180,4.9,11.4,69,0.00,,---,0.00,VWS V14.01,2013-10-04 18:37:00,
2013-10-04 14:42:00,74.3,63.1,30.09,WNW,292,3.6,11.4,68,0.00,,---,0.00,VWS V14.01,2013-10-04 18:42:00,
2013-10-04 14:47:00,74.7,62.6,30.09,NNW,338,2.2,11.4,66,0.00,,---,0.00,VWS V14.01,2013-10-04 18:47:00,
2013-10-04 14:52:00,74.1,60.7,30.09,SE,135,2.2,11.4,63,0.00,,---,0.00,VWS V14.01,2013-10-04 18:52:00,
2013-10-04 14:57:00,73.9,61.0,30.09,SW,225,3.1,11.4,64,0.00,,---,0.00,VWS V14.01,2013-10-04 18:57:00,
2013-10-04 15:02:00,73.9,61.4,30.09,East,90,0.0,5.8,65,0.00,,---,0.00,VWS V14.01,2013-10-04 19:02:00,
2013-10-04 15:07:00,74.7,62.6,30.09,NNW,338,3.1,5.8,66,0.00,,---,0.00,VWS V14.01,2013-10-04 19:07:00,
2013-10-04 15:12:00,75.2,61.8,30.09,NE,45,2.2,5.8,63,0.00,,---,0.00,VWS V14.01,2013-10-04 19:12:00,
2013-10-04 15:17:00,75.4,61.9,30.09,South,180,0.0,5.8,63,0.00,,---,0.00,VWS V14.01,2013-10-04 19:17:00,
2013-10-04 15:22:00,75.6,62.1,30.09,NW,315,0.0,6.3,63,0.00,,---,0.00,VWS V14.01,2013-10-04 19:22:00,
2013-10-04 15:27:00,75.2,62.2,30.06,NW,315,0.0,6.3,64,0.00,,---,0.00,VWS V14.01,2013-10-04 19:27:00,
2013-10-04 15:32:00,75.4,62.8,30.06,North,0,3.6,6.3,65,0.00,,---,0.00,VWS V14.01,2013-10-04 19:32:00,
2013-10-04 15:37:00,75.4,62.4,30.06,North,0,0.0,6.3,64,0.00,,---,0.00,VWS V14.01,2013-10-04 19:37:00,
2013-10-04 15:42:00,75.0,61.6,30.06,NW,315,4.0,6.3,63,0.00,,---,0.00,VWS V14.01,2013-10-04 19:42:00,
2013-10-04 15:47:00,74.7,62.6,30.06,NW,315,0.0,6.3,66,0.00,,---,0.00,VWS V14.01,2013-10-04 19:47:00,
2013-10-04 15:52:00,74.1,62.5,30.06,South,180,2.2,6.3,67,0.00,,---,0.00,VWS V14.01,2013-10-04 19:52:00,
2013-10-04 15:57:00,73.8,62.1,30.09,NW,315,2.7,6.3,67,0.00,,---,0.00,VWS V14.01,2013-10-04 19:57:00,
2013-10-04 16:02:00,73.2,62.0,30.09,West,270,2.7,4.9,68,0.00,,---,0.00,VWS V14.01,2013-10-04 20:02:00,
2013-10-04 16:07:00,72.7,61.9,30.09,West,270,3.1,4.9,69,0.00,,---,0.00,VWS V14.01,2013-10-04 20:07:00,
2013-10-04 16:12:00,72.3,61.6,30.09,West,270,0.0,6.3,69,0.00,,---,0.00,VWS V14.01,2013-10-04 20:12:00,
2013-10-04 16:17:00,72.5,61.8,30.09,SSE,158,3.6,6.3,69,0.00,,---,0.00,VWS V14.01,2013-10-04 20:17:00,
2013-10-04 16:22:00,72.5,61.3,30.09,SSW,202,0.0,6.3,68,0.00,,---,0.00,VWS V14.01,2013-10-04 20:22:00,
2013-10-04 16:27:00,72.3,61.2,30.09,SW,225,0.0,6.3,68,0.00,,---,0.00,VWS V14.01,2013-10-04 20:27:00,
2013-10-04 16:32:00,72.1,61.0,30.09,NW,315,0.0,6.3,68,0.00,,---,0.00,VWS V14.01,2013-10-04 20:32:00,
2013-10-04 16:37:00,72.3,61.6,30.09,NW,315,0.0,6.3,69,0.00,,---,0.00,VWS V14.01,2013-10-04 20:37:00,
2013-10-04 16:42:00,72.3,61.6,30.09,NW,315,0.0,6.3,69,0.00,,---,0.00,VWS V14.01,2013-10-04 20:42:00,
2013-10-04 16:47:00,72.1,61.8,30.09,WSW,248,0.0,6.3,70,0.00,,---,0.00,VWS V14.01,2013-10-04 20:47:00,
2013-10-04 16:52:00,72.3,62.4,30.09,WNW,292,0.0,6.3,71,0.00,,---,0.00,VWS V14.01,2013-10-04 20:52:00,
2013-10-04 16:57:00,72.5,62.6,30.09,WNW,292,0.0,6.3,71,0.00,,---,0.00,VWS V14.01,2013-10-04 20:57:00,
2013-10-04 17:02:00,72.5,62.6,30.09,WNW,292,0.0,0.0,71,0.00,,---,0.00,VWS V14.01,2013-10-04 21:02:00,
2013-10-04 17:07:00,72.7,62.7,30.09,SW,225,0.0,0.0,71,0.00,,---,0.00,VWS V14.01,2013-10-04 21:07:00,
2013-10-04 17:12:00,72.7,62.3,30.06,NW,315,0.0,2.2,70,0.00,,---,0.00,VWS V14.01,2013-10-04 21:12:00,
2013-10-04 17:17:00,72.7,61.9,30.06,West,270,0.0,3.6,69,0.00,,---,0.00,VWS V14.01,2013-10-04 21:17:00,
2013-10-04 17:22:00,72.7,62.3,30.06,West,270,0.0,3.6,70,0.00,,---,0.00,VWS V14.01,2013-10-04 21:22:00,
2013-10-04 17:27:00,72.5,62.2,30.06,West,270,0.0,3.6,70,0.00,,---,0.00,VWS V14.01,2013-10-04 21:27:00,
2013-10-04 17:32:00,72.5,62.6,30.06,West,270,0.0,3.6,71,0.00,,---,0.00,VWS V14.01,2013-10-04 21:32:00,
2013-10-04 17:37:00,72.7,63.5,30.06,West,270,0.0,3.6,73,0.00,,---,0.00,VWS V14.01,2013-10-04 21:37:00,
2013-10-04 17:42:00,72.9,63.3,30.09,SW,225,0.0,4.9,72,0.00,,---,0.00,VWS V14.01,2013-10-04 21:42:00,
2013-10-04 17:47:00,72.9,63.3,30.09,South,180,0.0,4.9,72,0.00,,---,0.00,VWS V14.01,2013-10-04 21:47:00,
2013-10-04 17:52:00,72.9,63.3,30.09,SW,225,0.0,4.9,72,0.00,,---,0.00,VWS V14.01,2013-10-04 21:52:00,
2013-10-04 17:57:00,72.7,63.5,30.09,WSW,248,0.0,4.9,73,0.00,,---,0.00,VWS V14.01,2013-10-04 21:57:00,
2013-10-04 18:02:00,72.3,63.6,30.09,North,0,0.0,2.2,74,0.00,,---,0.00,VWS V14.01,2013-10-04 22:02:00,
2013-10-04 18:07:00,72.3,62.8,30.09,NW,315,0.0,4.9,72,0.00,,---,0.00,VWS V14.01,2013-10-04 22:07:00,
2013-10-04 18:12:00,72.1,63.0,30.09,NW,315,0.0,4.9,73,0.00,,---,0.00,VWS V14.01,2013-10-04 22:12:00,
2013-10-04 18:17:00,72.0,63.6,30.09,NW,315,0.0,4.9,75,0.00,,---,0.00,VWS V14.01,2013-10-04 22:17:00,
2013-10-04 18:22:00,71.8,64.2,30.09,NW,315,0.0,4.9,77,0.00,,---,0.00,VWS V14.01,2013-10-04 22:22:00,
2013-10-04 18:27:00,71.6,64.4,30.09,NW,315,0.0,4.9,78,0.00,,---,0.00,VWS V14.01,2013-10-04 22:27:00,
2013-10-04 18:32:00,71.4,64.9,30.09,NW,315,0.0,4.9,80,0.00,,---,0.00,VWS V14.01,2013-10-04 22:32:00,
2013-10-04 18:37:00,71.1,64.9,30.09,NW,315,0.0,4.9,81,0.00,,---,0.00,VWS V14.01,2013-10-04 22:37:00,
2013-10-04 18:42:00,70.7,64.6,30.09,NW,315,0.0,4.9,81,0.00,,---,0.00,VWS V14.01,2013-10-04 22:42:00,
2013-10-04 18:47:00,70.2,64.8,30.09,NW,315,0.0,4.9,83,0.00,,---,0.00,VWS V14.01,2013-10-04 22:47:00,
2013-10-04 18:52:00,69.8,64.4,30.09,NW,315,0.0,4.9,83,0.00,,---,0.00,VWS V14.01,2013-10-04 22:52:00,
2013-10-04 18:57:00,69.4,64.7,30.09,NW,315,0.0,4.9,85,0.00,,---,0.00,VWS V14.01,2013-10-04 22:57:00,
2013-10-04 19:02:00,68.9,64.6,30.09,NW,315,0.0,0.0,86,0.00,,---,0.00,VWS V14.01,2013-10-04 23:02:00,
2013-10-04 19:07:00,68.4,64.3,30.09,NW,315,0.0,0.0,87,0.00,,---,0.00,VWS V14.01,2013-10-04 23:07:00,
2013-10-04 19:12:00,67.8,63.8,30.09,NW,315,0.0,0.0,87,0.00,,---,0.00,VWS V14.01,2013-10-04 23:12:00,
2013-10-04 19:17:00,67.5,63.8,30.09,NW,315,0.0,0.0,88,0.00,,---,0.00,VWS V14.01,2013-10-04 23:17:00,
2013-10-04 19:22:00,67.3,63.9,30.09,NW,315,0.0,0.0,89,0.00,,---,0.00,VWS V14.01,2013-10-04 23:22:00,
2013-10-04 19:27:00,66.9,63.6,30.09,NW,315,0.0,0.0,89,0.00,,---,0.00,VWS V14.01,2013-10-04 23:27:00,
2013-10-04 19:32:00,66.4,63.4,30.09,NW,315,0.0,0.0,90,0.00,,---,0.00,VWS V14.01,2013-10-04 23:32:00,
2013-10-04 19:37:00,66.6,63.5,30.09,NW,315,0.0,0.0,90,0.00,,---,0.00,VWS V14.01,2013-10-04 23:37:00,
2013-10-04 19:42:00,66.2,63.2,30.09,NW,315,0.0,0.0,90,0.00,,---,0.00,VWS V14.01,2013-10-04 23:42:00,
2013-10-04 19:47:00,66.0,63.3,30.09,NW,315,0.0,0.0,91,0.00,,---,0.00,VWS V14.01,2013-10-04 23:47:00,
2013-10-04 19:52:00,65.8,63.1,30.09,NW,315,0.0,0.0,91,0.00,,---,0.00,VWS V14.01,2013-10-04 23:52:00,
2013-10-04 19:57:00,65.8,63.1,30.09,NW,315,0.0,0.0,91,0.00,,---,0.00,VWS V14.01,2013-10-04 23:57:00,
2013-10-04 20:02:00,65.7,63.0,30.09,NW,315,0.0,0.0,91,0.00,,---,0.00,VWS V14.01,2013-10-05 00:02:00,
2013-10-04 20:07:00,65.5,62.8,30.09,NW,315,0.0,0.0,91,0.00,,---,0.00,VWS V14.01,2013-10-05 00:07:00,
2013-10-04 20:12:00,65.3,62.6,30.09,NW,315,0.0,0.0,91,0.00,,---,0.00,VWS V14.01,2013-10-05 00:12:00,
2013-10-04 20:17:00,65.3,62.6,30.09,NW,315,0.0,0.0,91,0.00,,---,0.00,VWS V14.01,2013-10-05 00:17:00,
2013-10-04 20:22:00,65.3,62.6,30.09,NW,315,0.0,0.0,91,0.00,,---,0.00,VWS V14.01,2013-10-05 00:22:00,
2013-10-04 20:27:00,65.1,62.4,30.09,NW,315,0.0,0.0,91,0.00,,---,0.00,VWS V14.01,2013-10-05 00:27:00,
2013-10-04 20:32:00,65.1,62.4,30.09,NW,315,0.0,0.0,91,0.00,,---,0.00,VWS V14.01,2013-10-05 00:32:00,
2013-10-04 20:37:00,65.1,62.4,30.09,NW,315,0.0,0.0,91,0.00,,---,0.00,VWS V14.01,2013-10-05 00:37:00,
2013-10-04 20:42:00,65.1,62.4,30.09,NW,315,0.0,0.0,91,0.00,,---,0.00,VWS V14.01,2013-10-05 00:42:00,
2013-10-04 20:47:00,65.3,62.6,30.09,NW,315,0.0,0.0,91,0.00,,---,0.00,VWS V14.01,2013-10-05 00:47:00,
2013-10-04 20:52:00,65.3,62.6,30.09,NW,315,0.0,0.0,91,0.00,,---,0.00,VWS V14.01,2013-10-05 00:52:00,
2013-10-04 20:57:00,65.5,62.8,30.09,NW,315,0.0,0.0,91,0.00,,---,0.00,VWS V14.01,2013-10-05 00:57:00,
2013-10-04 21:02:00,65.5,62.8,30.09,NW,315,0.0,0.0,91,0.00,,---,0.00,VWS V14.01,2013-10-05 01:02:00,
2013-10-04 21:07:00,65.5,62.8,30.09,NW,315,0.0,0.0,91,0.00,,---,0.00,VWS V14.01,2013-10-05 01:07:00,
2013-10-04 21:12:00,65.5,62.8,30.09,NW,315,0.0,0.0,91,0.00,,---,0.00,VWS V14.01,2013-10-05 01:12:00,
2013-10-04 21:17:00,65.5,62.8,30.09,NW,315,0.0,0.0,91,0.00,,---,0.00,VWS V14.01,2013-10-05 01:17:00,
2013-10-04 21:22:00,65.5,62.8,30.09,NW,315,0.0,0.0,91,0.00,,---,0.00,VWS V14.01,2013-10-05 01:22:00,
2013-10-04 21:27:00,65.5,62.8,30.09,NW,315,0.0,0.0,91,0.00,,---,0.00,VWS V14.01,2013-10-05 01:27:00,
2013-10-04 21:32:00,65.5,62.8,30.09,NW,315,0.0,0.0,91,0.00,,---,0.00,VWS V14.01,2013-10-05 01:32:00,
2013-10-04 21:37:00,65.7,63.0,30.09,NW,315,0.0,0.0,91,0.00,,---,0.00,VWS V14.01,2013-10-05 01:37:00,
2013-10-04 21:42:00,65.7,63.0,30.09,NW,315,0.0,0.0,91,0.00,,---,0.00,VWS V14.01,2013-10-05 01:42:00,
2013-10-04 21:47:00,65.8,63.1,30.09,NW,315,0.0,0.0,91,0.00,,---,0.00,VWS V14.01,2013-10-05 01:47:00,
2013-10-04 21:52:00,65.7,63.0,30.09,NW,315,0.0,0.0,91,0.00,,---,0.00,VWS V14.01,2013-10-05 01:52:00,
2013-10-04 21:57:00,65.8,63.1,30.09,NW,315,0.0,0.0,91,0.00,,---,0.00,VWS V14.01,2013-10-05 01:57:00,
2013-10-04 22:02:00,65.7,63.0,30.09,NW,315,0.0,0.0,91,0.00,,---,0.00,VWS V14.01,2013-10-05 02:02:00,
2013-10-04 22:07:00,65.7,63.0,30.09,NW,315,0.0,0.0,91,0.00,,---,0.00,VWS V14.01,2013-10-05 02:07:00,
2013-10-04 22:12:00,65.5,62.8,30.09,NW,315,0.0,0.0,91,0.00,,---,0.00,VWS V14.01,2013-10-05 02:12:00,
2013-10-04 22:17:00,65.5,62.8,30.09,NW,315,0.0,0.0,91,0.00,,---,0.00,VWS V14.01,2013-10-05 02:17:00,
2013-10-04 22:22:00,65.5,62.8,30.09,NW,315,0.0,0.0,91,0.00,,---,0.00,VWS V14.01,2013-10-05 02:22:00,
2013-10-04 22:27:00,65.5,62.8,30.09,NW,315,0.0,0.0,91,0.00,,---,0.00,VWS V14.01,2013-10-05 02:27:00,
2013-10-04 22:32:00,65.5,62.8,30.09,NW,315,0.0,0.0,91,0.00,,---,0.00,VWS V14.01,2013-10-05 02:32:00,
2013-10-04 22:37:00,65.5,62.8,30.09,NW,315,0.0,0.0,91,0.00,,---,0.00,VWS V14.01,2013-10-05 02:37:00,
2013-10-04 22:42:00,65.5,62.8,30.09,NW,315,0.0,0.0,91,0.00,,---,0.00,VWS V14.01,2013-10-05 02:42:00,
2013-10-04 22:47:00,65.3,62.6,30.09,NW,315,0.0,0.0,91,0.00,,---,0.00,VWS V14.01,2013-10-05 02:47:00,
2013-10-04 22:52:00,65.3,62.6,30.09,NW,315,0.0,0.0,91,0.00,,---,0.00,VWS V14.01,2013-10-05 02:52:00,
2013-10-04 22:57:00,65.3,62.6,30.09,NW,315,0.0,0.0,91,0.00,,---,0.00,VWS V14.01,2013-10-05 02:57:00,
2013-10-04 23:02:00,65.5,62.8,30.09,NW,315,0.0,0.0,91,0.00,,---,0.00,VWS V14.01,2013-10-05 03:02:00,
2013-10-04 23:07:00,65.5,62.8,30.09,NW,315,0.0,0.0,91,0.00,,---,0.00,VWS V14.01,2013-10-05 03:07:00,
2013-10-04 23:12:00,65.7,63.0,30.09,NW,315,0.0,0.0,91,0.00,,---,0.00,VWS V14.01,2013-10-05 03:12:00,
2013-10-04 23:17:00,65.7,63.0,30.09,NW,315,0.0,0.0,91,0.00,,---,0.00,VWS V14.01,2013-10-05 03:17:00,
2013-10-04 23:22:00,65.8,63.1,30.09,NW,315,0.0,0.0,91,0.00,,---,0.00,VWS V14.01,2013-10-05 03:22:00,
2013-10-04 23:27:00,65.8,63.1,30.09,NW,315,0.0,0.0,91,0.00,,---,0.00,VWS V14.01,2013-10-05 03:27:00,
2013-10-04 23:32:00,66.0,63.3,30.09,NW,315,0.0,0.0,91,0.00,,---,0.00,VWS V14.01,2013-10-05 03:32:00,
2013-10-04 23:37:00,66.2,63.5,30.09,SW,225,0.0,0.0,91,0.00,,---,0.00,VWS V14.01,2013-10-05 03:37:00,
2013-10-04 23:42:00,66.4,63.7,30.09,SW,225,0.0,0.0,91,0.00,,---,0.00,VWS V14.01,2013-10-05 03:42:00,
2013-10-04 23:47:00,66.4,63.7,30.09,SW,225,0.0,0.0,91,0.00,,---,0.00,VWS V14.01,2013-10-05 03:47:00,
2013-10-04 23:52:00,66.6,63.9,30.09,SE,135,0.0,0.0,91,0.00,,---,0.00,VWS V14.01,2013-10-05 03:52:00,
2013-10-04 23:57:00,66.6,63.9,30.09,SW,225,0.0,0.0,91,0.00,,---,0.00,VWS V14.01,2013-10-05 03:57:00,